Wind_Speed
66 64 66 61 54 48 46 46 44 37 40 39 31 31 31 31 27 23 21 22 21 24 28 29 26 24 22 20 18 18 17 19 19 20 21 21 21 21 20 20 20 22 26 28
70 71 64 57 54 49 47 47 41 37 44 40 36 35 34 34 28 24 23 19 16 16 21 26 28 28 26 24 22 20 19 20 20 22 23 23 23 23 24 24 25 27 29 30
69 66 62 59 57 52 52 49 46 43 46 40 37 38 36 32 31 28 21 18 15 18 15 18 28 30 30 26 26 25 24 24 22 23 24 24 24 25 27 28 29 31 30 32
66 64 61 60 56 50 51 48 44 43 46 42 39 43 36 33 30 26 23 21 19 15 18 19 18 28 30 30 30 29 28 27 26 26 26 27 27 27 30 32 32 33 32 35
71 68 64 59 54 51 52 49 46 46 49 45 42 46 36 38 36 27 27 26 22 20 19 22 21 22 32 34 33 32 33 32 31 30 31 31 31 31 33 34 34 34 36 38
69 68 63 53 51 53 52 50 49 48 50 49 46 48 46 40 36 29 28 26 22 23 23 23 23 26 28 32 34 34 36 35 37 36 36 35 35 36 36 38 37 37 41 41
61 69 66 61 57 55 55 53 51 50 52 54 49 51 56 39 34 29 26 25 27 28 30 28 27 23 25 25 29 34 38 39 41 41 41 40 40 40 40 41 41 41 44 45
59 64 68 64 62 55 54 55 53 52 53 51 49 51 52 42 34 30 30 31 31 30 30 31 31 31 30 29 29 31 34 39 44 46 44 45 45 44 44 46 46 45 46 48
58 60 61 65 62 60 59 60 56 56 55 55 55 50 47 44 31 31 32 33 34 33 32 34 36 36 35 36 36 36 37 37 38 43 47 48 48 49 49 49 50 49 49 50
61 61 61 66 63 62 57 55 54 54 55 52 51 50 46 44 38 32 32 34 37 38 39 40 40 42 42 40 41 39 38 39 40 40 41 45 50 52 53 54 54 54 53 51
59 63 64 59 60 59 60 64 63 58 56 54 50 47 43 41 40 38 36 38 37 38 41 44 46 47 47 45 43 42 40 39 40 42 42 45 47 52 59 59 58 57 56 53
59 58 57 56 53 58 62 62 62 60 58 56 55 49 46 45 47 47 45 40 42 43 44 45 46 49 52 50 49 48 45 43 44 44 42 41 44 49 56 60 60 59 59 58
66 63 64 63 63 62 59 55 58 61 58 57 57 44 50 51 51 51 51 50 48 48 50 48 46 48 51 54 56 55 53 53 51 48 47 48 48 45 46 53 60 62 60 59
70 69 68 60 53 52 56 60 67 67 63 57 53 47 51 51 51 51 52 53 51 49 49 50 50 51 50 53 56 59 58 57 54 51 49 50 51 51 52 54 57 62 64 64
66 70 69 69 65 60 50 51 57 56 57 57 43 49 49 54 55 56 56 54 52 54 54 53 53 54 54 52 51 53 56 57 55 51 47 43 46 48 52 56 57 58 60 61
64 67 65 66 62 64 63 58 55 53 53 54 53 47 50 52 54 52 52 56 54 55 57 57 56 56 56 57 56 55 52 52 54 54 51 46 47 48 49 48 54 59 61 61
67 68 66 65 64 64 64 57 57 53 50 44 46 37 44 47 49 52 55 55 56 57 59 60 57 56 56 54 51 50 48 46 45 44 45 46 48 49 50 49 51 54 59 60
60 58 59 62 66 65 51 53 50 48 48 48 48 49 47 47 45 50 52 52 54 54 53 54 55 53 51 49 47 45 45 44 43 42 44 45 45 47 53 54 53 55 57 60
58 57 50 53 60 57 51 48 44 44 40 43 42 45 46 45 47 44 45 46 46 48 51 51 51 50 49 48 46 46 44 46 46 46 48 48 50 53 54 56 57 60 60 61
64 58 45 44 45 45 44 48 46 50 47 45 42 38 36 38 38 36 44 46 48 48 48 48 49 49 47 47 46 45 47 49 48 48 51 54 56 57 57 59 62 62 62 65
58 50 47 45 37 34 34 44 48 47 36 36 34 33 35 36 36 40 42 43 44 44 45 46 45 44 43 43 43 42 41 41 41 43 46 49 51 53 54 55 55 53 54 57
59 59 49 42 37 36 39 39 42 37 30 29 28 33 35 37 37 38 39 38 38 39 41 43 43 43 43 44 44 45 43 41 39 40 42 44 45 46 47 47 46 48 50 50
52 44 36 38 37 38 35 34 30 31 31 29 33 35 36 36 36 37 37 35 34 34 36 38 39 41 42 42 40 39 38 38 38 39 38 38 39 39 41 43 45 47 46 47
47 45 45 41 35 30 29 29 30 29 29 33 35 37 35 34 34 34 34 34 35 36 36 37 37 38 39 39 39 39 39 41 40 41 40 39 40 40 40 40 40 40 41 42
47 45 43 40 37 37 38 37 33 30 31 35 37 37 34 32 30 30 30 30 32 34 35 36 36 34 35 36 38 39 39 37 36 37 37 37 37 37 37 38 39 40 42 43
47 44 42 38 35 36 33 33 34 36 38 42 42 40 36 32 30 30 28 28 30 32 35 36 36 36 37 36 38 39 37 36 36 36 38 38 39 38 38 39 40 42 44 46
Wind_Direction
219 219 222 223 223 226 228 230 239 236 240 240 235 234 242 245 244 249 261 266 258 258 256 258 256 254 251 252 251 253 258 262 262 254 253 250 252 258 258 258 262 263 265 264
214 219 219 218 221 223 227 231 231 232 239 238 239 238 242 248 253 258 264 271 268 259 270 263 261 260 256 255 256 255 254 257 257 258 255 257 258 261 260 260 259 259 261 264
218 220 218 217 220 219 226 229 230 234 239 239 238 241 242 247 248 255 261 259 263 262 263 267 261 259 258 258 260 258 256 256 259 260 262 263 265 265 267 265 267 269 267 267
218 219 218 219 221 221 228 231 232 236 239 240 240 243 242 244 249 252 258 254 259 269 259 263 266 264 260 259 256 259 260 262 263 265 268 266 266 269 269 271 273 274 272 271
218 217 216 219 221 221 227 228 231 231 237 236 235 245 229 242 244 247 250 248 259 266 269 273 267 255 252 252 260 260 261 261 263 264 265 266 268 267 268 270 271 272 273 274
220 220 218 221 225 226 226 229 230 230 235 236 235 241 236 236 248 244 243 247 261 262 267 272 273 264 252 248 253 255 262 263 265 265 265 265 265 268 269 271 272 272 272 272
217 216 221 224 223 222 225 228 229 231 232 237 235 239 250 237 243 248 253 257 253 257 262 262 266 269 270 258 250 255 259 262 264 265 265 266 266 266 270 271 272 274 274 275
219 218 216 219 223 229 229 230 232 234 237 239 241 243 248 251 250 247 253 256 257 260 262 265 269 274 271 265 264 266 268 264 262 263 264 265 267 269 267 270 273 274 274 275
220 219 220 219 220 223 222 226 229 232 236 238 243 245 251 255 246 249 250 253 257 258 256 258 264 266 263 265 269 270 270 268 268 265 262 264 265 268 268 268 270 271 273 276
221 220 218 219 219 219 223 228 232 235 237 242 244 246 248 251 255 244 249 250 253 255 256 256 258 259 260 262 265 267 265 265 266 269 271 270 267 266 267 267 268 268 270 273
215 217 219 218 221 226 226 229 231 230 232 237 239 242 242 249 254 251 241 244 245 248 252 254 255 255 256 259 262 262 262 262 265 269 268 266 268 268 267 268 268 269 270 272
213 213 220 223 222 223 227 227 232 236 237 237 242 242 243 244 248 250 249 244 247 251 252 253 255 255 256 258 262 261 262 265 267 266 269 270 271 270 269 270 272 273 272 272
218 215 217 221 222 222 225 232 233 234 236 236 240 238 238 242 246 251 255 257 250 247 253 259 258 257 257 259 260 261 264 265 266 269 267 270 272 272 273 272 271 272 274 275
219 220 222 225 229 227 224 227 228 234 236 238 237 240 247 246 249 253 254 257 262 265 261 257 257 258 261 262 263 262 266 268 271 275 277 276 276 276 275 273 274 275 276 276
221 226 227 226 227 229 235 238 240 243 239 243 234 239 247 252 254 255 258 264 268 266 265 262 261 260 262 266 267 266 267 270 273 272 273 278 279 274 273 272 272 273 275 277
226 227 227 232 233 234 236 237 239 238 240 244 240 237 246 254 260 265 267 263 263 266 269 272 275 275 275 275 277 279 280 280 278 274 279 280 276 277 279 281 278 277 275 273
224 227 228 231 235 236 235 234 238 240 245 242 246 246 256 257 258 256 260 262 263 266 267 271 277 280 283 284 284 282 282 280 272 271 272 271 270 272 275 278 280 281 280 280
228 230 234 233 235 235 233 238 239 242 247 254 253 255 257 260 261 262 264 265 268 272 275 275 277 277 277 278 279 279 274 271 269 268 266 268 270 274 276 276 277 276 277 280
217 223 233 233 233 237 236 233 241 244 246 252 256 255 253 251 254 261 265 265 267 269 272 272 271 271 272 273 272 270 269 268 267 267 268 269 271 273 273 274 275 274 276 280
224 225 232 235 237 237 232 232 233 240 247 246 248 249 248 249 259 263 264 266 266 267 268 269 270 272 275 276 274 272 272 274 274 273 276 277 277 280 278 277 278 279 277 278
223 219 226 229 225 228 229 226 232 241 245 242 243 249 254 261 263 261 265 267 269 272 274 276 277 279 280 280 281 281 282 283 283 280 280 281 282 282 284 284 284 283 282 283
220 221 220 217 227 231 235 239 237 235 239 246 250 251 253 256 259 263 266 269 273 275 276 277 280 282 284 283 283 283 281 279 278 278 279 281 284 286 288 289 289 290 290 290
219 219 223 234 241 241 245 245 244 242 239 239 244 246 252 260 265 267 267 267 268 275 277 277 279 281 283 283 283 283 283 284 283 284 285 286 286 287 288 290 293 295 293 293
216 219 228 230 233 231 239 242 242 242 244 243 246 255 260 263 264 265 265 265 269 274 278 280 281 282 282 282 282 282 283 283 283 283 285 288 289 288 288 287 288 290 292 292
217 222 230 234 234 236 237 239 236 241 248 249 249 254 257 259 260 261 262 265 271 276 279 280 281 283 284 286 286 287 286 286 287 287 286 284 285 286 289 290 291 293 293 293
223 226 230 236 237 238 238 242 243 245 245 247 248 250 253 259 260 261 262 266 270 272 276 278 280 281 282 284 285 284 284 285 287 287 287 289 289 290 290 290 290 291 292 291
Height
5739 5746 5757 5767 5775 5781 5788 5791 5796 5806 5806 5812 5819 5821 5822 5824 5828 5831 5833 5836 5839 5841 5842 5846 5848 5851 5853 5854 5855 5855 5857 5859 5862 5863 5864 5864 5866 5868 5869 5870 5872 5873 5872 5871
5725 5736 5751 5759 5766 5774 5780 5785 5792 5798 5798 5807 5813 5816 5818 5821 5826 5827 5829 5834 5835 5836 5838 5841 5843 5846 5850 5851 5852 5852 5853 5854 5856 5859 5859 5861 5862 5864 5865 5866 5866 5866 5865 5866
5723 5738 5742 5747 5756 5765 5769 5777 5784 5791 5791 5800 5805 5809 5814 5818 5819 5821 5826 5829 5831 5831 5833 5835 5837 5841 5844 5848 5849 5849 5850 5850 5853 5854 5856 5857 5858 5859 5860 5860 5860 5860 5861 5860
5715 5720 5731 5740 5748 5759 5763 5771 5778 5783 5787 5793 5798 5800 5808 5811 5815 5820 5823 5825 5825 5826 5827 5829 5834 5835 5839 5841 5843 5844 5846 5846 5848 5849 5851 5852 5853 5854 5855 5854 5854 5855 5856 5855
5708 5711 5722 5731 5743 5751 5755 5765 5770 5776 5778 5784 5790 5790 5805 5804 5808 5815 5817 5818 5819 5820 5822 5824 5827 5828 5830 5832 5836 5839 5840 5841 5842 5844 5845 5846 5848 5848 5847 5847 5848 5847 5848 5848
5691 5704 5712 5727 5734 5740 5748 5757 5762 5768 5770 5776 5783 5784 5793 5798 5802 5806 5808 5813 5815 5815 5817 5819 5821 5822 5822 5824 5828 5831 5834 5836 5836 5837 5838 5839 5840 5840 5840 5841 5841 5842 5840 5839
5682 5691 5705 5716 5722 5730 5738 5746 5753 5757 5761 5766 5774 5776 5778 5796 5798 5801 5805 5807 5809 5810 5811 5813 5814 5817 5818 5819 5821 5822 5824 5827 5828 5829 5830 5831 5832 5832 5832 5832 5833 5834 5833 5832
5672 5683 5694 5705 5712 5728 5733 5737 5745 5749 5755 5762 5766 5769 5774 5785 5793 5797 5798 5799 5801 5803 5805 5806 5807 5809 5811 5813 5813 5816 5817 5818 5819 5820 5822 5822 5822 5823 5824 5823 5823 5824 5823 5821
5670 5678 5688 5694 5704 5714 5718 5724 5735 5740 5746 5751 5756 5765 5769 5773 5784 5787 5790 5791 5793 5795 5797 5799 5800 5801 5802 5804 5806 5807 5808 5809 5810 5811 5811 5812 5812 5811 5812 5813 5811 5813 5813 5810
5661 5670 5676 5684 5695 5701 5714 5723 5727 5733 5739 5745 5751 5756 5762 5767 5770 5779 5781 5783 5785 5786 5788 5790 5791 5792 5793 5795 5796 5797 5799 5800 5800 5800 5801 5801 5802 5801 5800 5798 5799 5799 5800 5800
5652 5662 5669 5676 5683 5698 5705 5706 5713 5722 5728 5734 5741 5750 5756 5759 5762 5766 5771 5772 5774 5776 5779 5780 5781 5782 5784 5786 5787 5788 5789 5790 5791 5790 5789 5789 5789 5788 5787 5786 5786 5785 5786 5786
5642 5648 5659 5671 5678 5686 5692 5702 5706 5711 5721 5727 5734 5747 5750 5751 5750 5752 5755 5761 5763 5765 5767 5769 5770 5773 5775 5777 5778 5779 5780 5780 5780 5780 5779 5778 5777 5776 5774 5774 5773 5773 5772 5772
5633 5640 5648 5654 5663 5675 5685 5694 5701 5703 5709 5718 5724 5739 5737 5739 5741 5743 5745 5747 5751 5753 5755 5757 5761 5764 5764 5766 5767 5768 5769 5769 5769 5768 5768 5767 5767 5766 5764 5762 5760 5759 5759 5759
5626 5633 5641 5649 5663 5668 5673 5679 5686 5689 5701 5712 5719 5729 5726 5729 5732 5734 5733 5735 5738 5741 5746 5749 5751 5752 5754 5756 5757 5757 5757 5758 5758 5757 5757 5755 5756 5756 5753 5750 5748 5746 5744 5743
5624 5630 5635 5643 5650 5660 5668 5675 5680 5685 5700 5695 5717 5716 5720 5717 5719 5721 5724 5725 5728 5730 5733 5737 5739 5741 5743 5744 5745 5746 5746 5746 5745 5745 5743 5742 5741 5740 5738 5737 5734 5732 5731 5730
5615 5622 5631 5636 5643 5648 5655 5662 5669 5679 5689 5691 5701 5709 5711 5710 5711 5713 5711 5715 5719 5720 5722 5723 5725 5728 5731 5732 5732 5732 5732 5732 5733 5731 5730 5729 5727 5726 5725 5723 5720 5719 5717 5716
5603 5612 5620 5626 5632 5637 5640 5654 5662 5673 5677 5688 5688 5704 5699 5699 5700 5701 5699 5704 5707 5708 5710 5712 5713 5713 5715 5716 5718 5718 5718 5718 5716 5715 5713 5713 5713 5712 5710 5708 5706 5705 5703 5701
5601 5610 5615 5617 5621 5627 5644 5648 5658 5663 5668 5675 5680 5684 5685 5688 5689 5688 5693 5696 5695 5697 5700 5701 5701 5701 5701 5702 5703 5704 5703 5702 5701 5701 5699 5698 5698 5698 5696 5694 5692 5691 5689 5687
5591 5596 5605 5609 5618 5628 5632 5643 5650 5653 5662 5665 5673 5672 5676 5678 5677 5683 5682 5683 5686 5686 5687 5688 5688 5688 5688 5688 5689 5690 5689 5688 5686 5685 5685 5684 5684 5682 5681 5680 5679 5678 5676 5674
5582 5591 5599 5605 5611 5619 5634 5637 5640 5643 5649 5655 5660 5663 5665 5666 5671 5675 5669 5672 5674 5675 5676 5677 5676 5676 5675 5675 5675 5676 5675 5675 5674 5672 5670 5670 5669 5667 5666 5665 5664 5662 5661 5659
5574 5583 5593 5599 5604 5612 5621 5625 5630 5634 5647 5645 5649 5652 5654 5657 5662 5660 5661 5662 5663 5664 5665 5666 5666 5665 5665 5665 5664 5663 5663 5663 5662 5661 5660 5658 5657 5656 5654 5654 5652 5649 5647 5645
5566 5574 5583 5590 5600 5608 5612 5615 5621 5630 5631 5635 5640 5643 5645 5646 5648 5650 5651 5651 5652 5653 5654 5654 5654 5654 5654 5655 5655 5654 5654 5653 5652 5650 5649 5647 5645 5644 5641 5640 5638 5636 5634 5632
5564 5576 5584 5590 5595 5599 5603 5611 5615 5620 5623 5625 5629 5633 5635 5637 5639 5640 5641 5641 5642 5644 5644 5644 5645 5645 5645 5645 5645 5645 5644 5642 5641 5640 5639 5637 5635 5632 5631 5629 5626 5624 5622 5619
5558 5566 5572 5579 5585 5591 5596 5600 5603 5606 5611 5616 5621 5624 5626 5627 5628 5629 5630 5631 5633 5634 5635 5636 5636 5636 5636 5635 5635 5634 5633 5632 5630 5629 5627 5625 5624 5622 5620 5617 5614 5612 5610 5608
5551 5557 5564 5570 5575 5580 5585 5590 5595 5601 5604 5609 5612 5614 5616 5617 5618 5619 5619 5621 5622 5623 5624 5624 5625 5625 5624 5624 5623 5622 5621 5620 5619 5617 5615 5613 5611 5609 5607 5605 5603 5601 5598 5596
5543 5550 5555 5562 5569 5575 5579 5582 5586 5590 5593 5597 5599 5603 5605 5608 5608 5610 5610 5610 5612 5611 5612 5612 5612 5612 5612 5611 5610 5609 5608 5607 5606 5605 5604 5602 5600 5599 5597 5594 5592 5589 5587 5583